This is the latest recevied weather packets stored in our database for station/object N9OJR. If no packets are shown the sender has not sent any weather packets the latest 10 day(s).
| Time | Temp. | Humidity | Pressure | Rain* | Wind** | Luminosity | Snow |
|---|---|---|---|---|---|---|---|
| 1778106778 | 11.67° C | 60% | 1009.2 hPa | 0 mm | - | 40 W/m² | - |
| 1778106474 | 11.67° C | 59% | 1009.2 hPa | 0 mm | - | 48 W/m² | - |
| 1778106170 | 12.22° C | 60% | 1008.8 hPa | 0 mm | - | 62 W/m² | - |
| 1778105863 | 12.22° C | 62% | 1009 hPa | 0 mm | - | 65 W/m² | - |
| 1778105561 | 12.22° C | 61% | 1008.7 hPa | 0 mm | - | 61 W/m² | - |
| 1778105257 | 12.22° C | 60% | 1008.6 hPa | 0 mm | - | 72 W/m² | - |
| 1778104952 | 12.22° C | 61% | 1008.8 hPa | 0 mm | - | 116 W/m² | - |
| 1778104644 | 12.22° C | 61% | 1008.4 hPa | 0 mm | - | 85 W/m² | - |
| 1778104339 | 12.78° C | 61% | 1008.8 hPa | 0 mm | - | 102 W/m² | - |
| 1778104036 | 12.78° C | 63% | 1008.7 hPa | 0 mm | - | 128 W/m² | - |
| 1778103733 | 12.22° C | 62% | 1008.5 hPa | 0 mm | - | 154 W/m² | - |
| 1778103431 | 12.22° C | 64% | 1008.4 hPa | 0 mm | - | 121 W/m² | - |
| 1778103129 | 12.22° C | 63% | 1008.4 hPa | 0 mm | - | 93 W/m² | - |
| 1778102826 | 12.22° C | 62% | 1008.4 hPa | 0 mm | - | 92 W/m² | - |
| 1778102521 | 12.22° C | 63% | 1008.2 hPa | 0 mm | - | 110 W/m² | - |
| 1778102216 | 12.78° C | 61% | 1008.2 hPa | 0 mm | - | 149 W/m² | - |
| 1778101913 | 12.78° C | 62% | 1008.3 hPa | 0 mm | - | 148 W/m² | - |
| 1778101610 | 12.78° C | 63% | 1008.2 hPa | 0 mm | - | 180 W/m² | - |
| 1778101306 | 12.78° C | 60% | 1008.4 hPa | 0 mm | - | 145 W/m² | - |
| 1778101004 | 12.22° C | 62% | 1008 hPa | 0 mm | - | 177 W/m² | - |
| 1778100699 | 12.22° C | 63% | 1008.1 hPa | 0 mm | - | 168 W/m² | - |
| 1778100397 | 12.78° C | 63% | 1008.2 hPa | 0 mm | - | 147 W/m² | - |
| 1778100093 | 12.78° C | 60% | 1008.4 hPa | 0 mm | - | 168 W/m² | - |
| 1778099792 | 12.78° C | 62% | 1008.3 hPa | 0 mm | - | 189 W/m² | - |
| 1778099488 | 12.78° C | 61% | 1008.1 hPa | 0 mm | - | 188 W/m² | - |
* Rain latest hour (hover to see other rain measurements)
** Current wind speed in m/s (hover to see current wind gust speed)